Location: Kunchanapalle
(16.4623°N, 80.6176°E)
Time: 18:57:51
(UTC+00:00)

SEDSat Delta rocket - Pass Details

Date: 13 August 2020
Orbit: 533 x 1000 km, 31.4° (Epoch: 20 September)

Event Time Altitude Azimuth Distance (km) Brightness Sun altitude
Exits shadow 23:20:00 21° 250° (WSW) 1,991 5.0 -14.9°
Maximum altitude 23:24:34 75° 332° (NNW) 1,017 4.1 -13.8°
Drops below altitude 10° 23:31:22 10° 58° (ENE) 2,756 7.8 -12.3°
Sets 23:34:04 0° 60° (ENE) 3,694 8.9 -11.7°
